When you browse on this site, cookies collect data to enhance your experience and personalize the content and advertising you see.
Visit our Privacy Policy to learn more. By continuing to use the site, you agree to this use of cookies and data.
  • In Latvia
  • List of Countries
  • For 7 days
  • Water Temperature
  • Satellite Maps
  • Weather Map
  • Weather Widgets
  • user-avatar
    Login

    Hourly Weather Pittsburgh

    Today, 21 July, Sunday

    Time Temperature Precipitation Wind Pressure Humidity
    00:00 +27°C° 0 mm 2 mps 737 mmHg 89%
    01:00 +26°C° 0 mm 2 mps 737 mmHg 91%
    02:00 +26°C° 0 mm 2 mps 737 mmHg 92%
    03:00 +26°C° 0 mm 2 mps 737 mmHg 92%
    04:00 +26°C° 0 mm 2 mps 737 mmHg 93%
    05:00 +26°C° 0.2 mm 2 mps 737 mmHg 93%
    06:00 +27°C° 0.2 mm 2 mps 738 mmHg 92%
    07:00 +27°C° 0.2 mm 2 mps 738 mmHg 92%
    08:00 +29°C° 1.2 mm 2 mps 738 mmHg 84%
    09:00 +30°C° 1.2 mm 2 mps 738 mmHg 76%
    10:00 +32°C° 1.2 mm 2 mps 738 mmHg 68%
    11:00 +34°C° 0.2 mm 2 mps 738 mmHg 66%
    12:00 +35°C° 0.2 mm 2 mps 738 mmHg 63%
    13:00 +35°C° 0.2 mm 3 mps 738 mmHg 60%
    14:00 +35°C° 0.9 mm 3 mps 737 mmHg 63%
    15:00 +34°C° 0.9 mm 2 mps 737 mmHg 66%
    16:00 +34°C° 0.9 mm 2 mps 737 mmHg 70%
    17:00 +32°C° 1.3 mm 2 mps 737 mmHg 73%
    18:00 +31°C° 1.3 mm 2 mps 737 mmHg 77%
    19:00 +29°C° 1.3 mm 2 mps 737 mmHg 80%
    20:00 +28°C° 0.6 mm 2 mps 737 mmHg 83%
    21:00 +27°C° 0.6 mm 2 mps 737 mmHg 86%
    22:00 +27°C° 0.6 mm 2 mps 737 mmHg 89%
    23:00 +26°C° 1.6 mm 2 mps 737 mmHg 90%

    Tomorrow, 22 July, Monday

    Time Temperature Precipitation Wind Pressure Humidity
    00:00 +25°C° 1.6 mm 2 mps 737 mmHg 91%
    01:00 +24°C° 1.6 mm 2 mps 737 mmHg 92%
    02:00 +24°C° 0.8 mm 2 mps 737 mmHg 91%
    03:00 +23°C° 0.8 mm 1 mps 737 mmHg 90%
    04:00 +22°C° 0.8 mm 1 mps 736 mmHg 90%
    05:00 +22°C° 0.7 mm 1 mps 736 mmHg 91%
    06:00 +21°C° 0.7 mm 0 mps 737 mmHg 92%
    07:00 +21°C° 0.7 mm 0 mps 737 mmHg 93%
    08:00 +23°C° 0.9 mm 1 mps 737 mmHg 93%
    09:00 +23°C° 0.9 mm 2 mps 737 mmHg 92%
    10:00 +22°C° 0.9 mm 3 mps 737 mmHg 92%
    11:00 +21°C° 0.8 mm 3 mps 737 mmHg 92%
    12:00 +20°C° 0.8 mm 3 mps 737 mmHg 91%
    13:00 +20°C° 0.8 mm 3 mps 737 mmHg 91%
    14:00 +20°C° 0.8 mm 2 mps 737 mmHg 89%
    15:00 +20°C° 0.8 mm 2 mps 737 mmHg 88%
    16:00 +21°C° 0.8 mm 1 mps 737 mmHg 86%
    17:00 +21°C° 0 mm 1 mps 737 mmHg 86%
    18:00 +21°C° 0 mm 1 mps 737 mmHg 86%
    19:00 +21°C° 0 mm 1 mps 737 mmHg 86%
    20:00 +21°C° 0 mm 1 mps 737 mmHg 87%
    21:00 +20°C° 0 mm 1 mps 738 mmHg 89%
    22:00 +19°C° 0 mm 1 mps 738 mmHg 91%
    23:00 +19°C° 0 mm 1 mps 738 mmHg 91%

    Day after tomorrow, 23 July, Tuesday

    Time Temperature Precipitation Wind Pressure Humidity
    00:00 +18°C° 0 mm 1 mps 738 mmHg 90%
    01:00 +18°C° 0 mm 1 mps 738 mmHg 90%
    02:00 +16°C° 0 mm 1 mps 738 mmHg 91%
    03:00 +16°C° 0 mm 1 mps 738 mmHg 92%
    04:00 +16°C° 0 mm 1 mps 738 mmHg 93%
    05:00 +16°C° 0 mm 2 mps 739 mmHg 89%
    06:00 +17°C° 0 mm 2 mps 739 mmHg 85%
    07:00 +18°C° 0 mm 2 mps 739 mmHg 81%
    08:00 +19°C° 0 mm 2 mps 739 mmHg 71%
    09:00 +21°C° 0 mm 2 mps 740 mmHg 62%
    10:00 +24°C° 0 mm 3 mps 740 mmHg 52%
    11:00 +25°C° 0 mm 3 mps 740 mmHg 51%
    12:00 +26°C° 0 mm 3 mps 740 mmHg 49%
    13:00 +27°C° 0 mm 3 mps 739 mmHg 47%
    14:00 +26°C° 0 mm 3 mps 739 mmHg 48%
    15:00 +26°C° 0 mm 3 mps 739 mmHg 48%
    16:00 +26°C° 0 mm 3 mps 739 mmHg 49%
    17:00 +25°C° 0 mm 3 mps 739 mmHg 55%
    18:00 +24°C° 0 mm 3 mps 739 mmHg 61%
    19:00 +21°C° 0 mm 3 mps 739 mmHg 67%
    20:00 +20°C° 0 mm 2 mps 740 mmHg 71%
    21:00 +19°C° 0 mm 2 mps 740 mmHg 75%
    22:00 +17°C° 0 mm 2 mps 740 mmHg 80%
    23:00 +18°C° 0 mm 1 mps 740 mmHg 81%

    24 July, Wednesday

    Time Temperature Precipitation Wind Pressure Humidity
    00:00 +16°C° 0 mm 1 mps 740 mmHg 83%
    01:00 +16°C° 0 mm 1 mps 740 mmHg 85%
    02:00 +14°C° 0 mm 0 mps 740 mmHg 86%
    03:00 +14°C° 0 mm 0 mps 740 mmHg 86%
    04:00 +14°C° 0 mm 0 mps 741 mmHg 87%
    05:00 +15°C° 0 mm 0 mps 741 mmHg 84%
    06:00 +16°C° 0 mm 0 mps 741 mmHg 81%
    07:00 +17°C° 0 mm 0 mps 742 mmHg 78%
    08:00 +19°C° 0 mm 0 mps 742 mmHg 71%
    09:00 +23°C° 0 mm 1 mps 742 mmHg 64%
    10:00 +25°C° 0 mm 1 mps 742 mmHg 57%
    11:00 +26°C° 0 mm 1 mps 742 mmHg 52%
    12:00 +27°C° 0 mm 2 mps 742 mmHg 46%
    13:00 +28°C° 0 mm 2 mps 742 mmHg 41%
    14:00 +28°C° 0 mm 2 mps 742 mmHg 42%
    15:00 +27°C° 0 mm 2 mps 741 mmHg 42%
    16:00 +27°C° 0 mm 2 mps 741 mmHg 43%
    17:00 +26°C° 0 mm 2 mps 741 mmHg 50%
    18:00 +25°C° 0 mm 1 mps 741 mmHg 57%
    19:00 +23°C° 0 mm 1 mps 741 mmHg 64%
    20:00 +22°C° 0 mm 1 mps 742 mmHg 67%
    21:00 +21°C° 0 mm 1 mps 742 mmHg 70%
    22:00 +17°C° 0 mm 0 mps 742 mmHg 73%
    23:00 +17°C° 0 mm 0 mps 742 mmHg 75%

    25 July, Thursday

    Time Temperature Precipitation Wind Pressure Humidity
    00:00 +16°C° 0 mm 0 mps 742 mmHg 77%
    01:00 +16°C° 0 mm 0 mps 742 mmHg 79%
    02:00 +15°C° 0 mm 0 mps 742 mmHg 80%
    03:00 +15°C° 0 mm 0 mps 742 mmHg 80%
    04:00 +15°C° 0 mm 0 mps 742 mmHg 81%
    05:00 +16°C° 0 mm 0 mps 743 mmHg 79%
    06:00 +17°C° 0 mm 0 mps 743 mmHg 77%
    07:00 +17°C° 0 mm 0 mps 743 mmHg 75%
    08:00 +22°C° 0 mm 1 mps 744 mmHg 68%
    09:00 +24°C° 0 mm 1 mps 744 mmHg 61%
    10:00 +27°C° 0 mm 1 mps 744 mmHg 53%
    11:00 +28°C° 0 mm 1 mps 744 mmHg 49%
    12:00 +29°C° 0 mm 1 mps 744 mmHg 45%
    13:00 +30°C° 0 mm 1 mps 743 mmHg 42%
    14:00 +30°C° 0 mm 1 mps 743 mmHg 42%
    15:00 +30°C° 0 mm 1 mps 743 mmHg 43%
    16:00 +30°C° 0 mm 1 mps 743 mmHg 44%
    17:00 +28°C° 0 mm 1 mps 743 mmHg 51%
    18:00 +27°C° 0 mm 1 mps 743 mmHg 57%
    19:00 +23°C° 0 mm 0 mps 743 mmHg 64%
    20:00 +22°C° 0 mm 0 mps 743 mmHg 68%
    21:00 +20°C° 0 mm 0 mps 744 mmHg 71%
    22:00 +19°C° 0 mm 0 mps 744 mmHg 75%
    23:00 +19°C° 0 mm 0 mps 744 mmHg 76%

    26 July, Friday

    Time Temperature Precipitation Wind Pressure Humidity
    00:00 +18°C° 0 mm 0 mps 744 mmHg 77%
    01:00 +18°C° 0 mm 0 mps 744 mmHg 78%
    02:00 +17°C° 0 mm 0 mps 744 mmHg 79%
    03:00 +17°C° 0 mm 0 mps 744 mmHg 80%
    04:00 +17°C° 0 mm 0 mps 744 mmHg 81%
    05:00 +17°C° 0 mm 0 mps 744 mmHg 79%
    06:00 +18°C° 0 mm 0 mps 744 mmHg 77%
    07:00 +19°C° 0 mm 0 mps 745 mmHg 74%
    08:00 +24°C° 0 mm 1 mps 745 mmHg 67%
    09:00 +26°C° 0 mm 1 mps 745 mmHg 60%
    10:00 +29°C° 0 mm 1 mps 746 mmHg 53%
    11:00 +29°C° 0 mm 1 mps 745 mmHg 50%
    12:00 +30°C° 0 mm 2 mps 745 mmHg 47%
    13:00 +31°C° 0 mm 2 mps 745 mmHg 44%
    14:00 +31°C° 0 mm 2 mps 745 mmHg 44%
    15:00 +31°C° 0 mm 2 mps 744 mmHg 45%
    16:00 +31°C° 0 mm 2 mps 744 mmHg 45%
    17:00 +30°C° 0 mm 1 mps 744 mmHg 51%
    18:00 +28°C° 0 mm 1 mps 744 mmHg 57%
    19:00 +25°C° 0 mm 0 mps 744 mmHg 64%
    20:00 +23°C° 0 mm 0 mps 744 mmHg 67%
    21:00 +22°C° 0 mm 0 mps 745 mmHg 71%
    22:00 +21°C° 0 mm 0 mps 745 mmHg 74%
    23:00 +20°C° 0 mm 0 mps 745 mmHg 76%
    Show more